(85072) = 1245 T-2 = 2000 DG77

Discovered at Palomar on 1973-09-29 by C. J. van Houten, I. van Houten-Groeneveld, and T. Gehrels.

Orbit

Orbit type: Main Belt

Note: WebGL enabled browser required.

epoch2024-03-31.0
epoch JD2460400.5
perihelion date2020-03-29.96689
perihelion JD2458938.46689
argument of perihelion (°)108.16796
ascending node (°)353.88473
inclination (°)6.34944
eccentricity0.1000115
perihelion distance (AU)2.3209151
Tisserand w.r.t. Jupiter3.4
ΔV w.r.t. Earth (km/sec)9.7
semimajor axis (AU)2.5788274
mean anomaly (°)347.95865
mean daily motion (°/day)0.23799640
aphelion distance (AU)2.837
period (years)4.14
P-vector [x]-0.20943185
P-vector [y]0.85014229
P-vector [z]0.48311116
Q-vector [x]-0.97775227
Q-vector [y]-0.17611895
Q-vector [z]-0.11394128
absolute magnitude15.92
phase slope0.15
uncertainty0
referenceMPEC 2024-E190
observations used772
oppositions17
arc length (days)18433
first opposition used1973
last opposition used2024
residual rms (arc-secs)0.74
perturbers coarse indicatorM-v
perturbers precise indicator003Ek
first observation date used1973-09-25.0
last observation date used2024-03-14.0
computer nameMPCLINUX
JD of orbit computation2456937.278341
perihelion JD uncertainty (days)1.8212E-04
argument of perihelion uncertainty (°)6.1948E-05
ascending node uncertainty (°)4.4839E-05
inclination uncertainty (°)8.7301E-06
eccentricity uncertainty 5.9716E-08
perihelion distance uncertainty (AU)1.5274E-07
Minimum Orbit Intersection Distances (in AU)
for orbit epoch: 2460400.5, reference: E2024-GB3
Mercury2.00537
Venus1.60508
Earth1.34757
Mars0.70216
Jupiter2.27711
Saturn6.73967
Uranus15.957
Neptune27.2692

Observations

783 total observations over interval: 1973 09 25.30729 – 2024 03 14.125681
These data are available for download (format description).

Date (UT) J2000 RA J2000 Dec Magn Location Ref
1973 09 25.30729 00 19 16.79 +04 06 19.0   675 – Palomar Mountain MPS 4265
1973 09 29.25330 00 15 32.98 +03 53 07.1 19.7   675 – Palomar Mountain MPS 4265
1973 09 29.31806 00 15 29.12 +03 52 54.5   675 – Palomar Mountain MPS 4265
1973 09 30.21007 00 14 38.53 +03 49 51.3   675 – Palomar Mountain MPS 4265
1973 09 30.27431 00 14 34.94 +03 49 40.1   675 – Palomar Mountain MPS 4265
1973 10 04.28958 00 10 48.90 +03 35 52.0   675 – Palomar Mountain MPS 4265
1973 10 04.35208 00 10 45.30 +03 35 38.7   675 – Palomar Mountain MPS 4265
1973 10 05.31684 00 09 51.86 +03 32 21.2   675 – Palomar Mountain MPS 4265
1973 10 05.37917 00 09 48.45 +03 32 07.9   675 – Palomar Mountain MPS 4265
2000 02 27.37519 11 25 38.43 +05 30 49.2 18.4 V 691 – Steward Observatory, Kitt Peak-Spacewatch MPS 12280
2000 02 27.39654 11 25 37.20 +05 30 53.0 18.4 V 691 – Steward Observatory, Kitt Peak-Spacewatch MPS 12280
2000 02 27.41892 11 25 35.92 +05 30 56.8 18.4 V 691 – Steward Observatory, Kitt Peak-Spacewatch MPS 12280
2000 02 29.38893 11 23 45.46 +05 36 44.5 18.8   704 – Lincoln Laboratory ETS, New Mexico MPS 11282
2000 02 29.40234 11 23 44.73 +05 36 46.4 18.5   704 – Lincoln Laboratory ETS, New Mexico MPS 11282
2000 02 29.41575 11 23 44.02 +05 36 49.0 19.0   704 – Lincoln Laboratory ETS, New Mexico MPS 11282
2000 02 29.42913 11 23 43.21 +05 36 51.6 19.1   704 – Lincoln Laboratory ETS, New Mexico MPS 11282
2000 03 03.32704 11 20 57.24 +05 45 33.8 19.4   704 – Lincoln Laboratory ETS, New Mexico MPS 11282
2000 03 03.35710 11 20 55.36 +05 45 39.6 19.2   704 – Lincoln Laboratory ETS, New Mexico MPS 11282
2000 03 03.37162 11 20 54.53 +05 45 41.9 19.1   704 – Lincoln Laboratory ETS, New Mexico MPS 11282
2000 03 03.38593 11 20 53.67 +05 45 44.8 18.9   704 – Lincoln Laboratory ETS, New Mexico MPS 11282
2000 03 03.40012 11 20 52.80 +05 45 47.3 19.3   704 – Lincoln Laboratory ETS, New Mexico MPS 11282
2000 03 06.40881 11 17 57.48 +05 54 54.1 19.7   608 – Haleakala-AMOS MPS 12280
2000 03 06.42007 11 17 56.77 +05 54 55.9 19.2   608 – Haleakala-AMOS MPS 12280
2000 03 06.43079 11 17 56.14 +05 54 57.5 18.8   608 – Haleakala-AMOS MPS 12280
2000 03 11.24761 11 13 14.30 +06 09 12.2 19.4   704 – Lincoln Laboratory ETS, New Mexico MPS 11282
2000 03 11.26197 11 13 13.47 +06 09 14.0 19.6   704 – Lincoln Laboratory ETS, New Mexico MPS 11282
2000 03 11.27456 11 13 12.76 +06 09 16.2 19.3   704 – Lincoln Laboratory ETS, New Mexico MPS 11282
2000 03 11.28771 11 13 11.92 +06 09 18.3 19.6   704 – Lincoln Laboratory ETS, New Mexico MPS 11282
2000 03 11.30047 11 13 11.13 +06 09 21.0 19.4   704 – Lincoln Laboratory ETS, New Mexico MPS 11282
2000 03 11.31482 11 13 10.34 +06 09 24.2 18.6 R 699 – Lowell Observatory-LONEOS MPS 11282
2000 03 11.33673 11 13 08.98 +06 09 27.8   699 – Lowell Observatory-LONEOS MPS 11282
2000 03 11.35862 11 13 07.69 +06 09 31.6   699 – Lowell Observatory-LONEOS MPS 11282
2000 03 11.38063 11 13 06.42 +06 09 35.4   699 – Lowell Observatory-LONEOS MPS 11282
2002 09 05.28124 00 51 53.34 +07 10 37.5 19.5   704 – Lincoln Laboratory ETS, New Mexico MPS 81598
2002 09 05.29525 00 51 52.82 +07 10 35.5 19.6   704 – Lincoln Laboratory ETS, New Mexico MPS 81598
2002 09 05.30930 00 51 52.25 +07 10 35.6 20.2   704 – Lincoln Laboratory ETS, New Mexico MPS 81598
2002 10 07.25487 00 25 02.27 +05 53 12.6 19.3   704 – Lincoln Laboratory ETS, New Mexico MPS 64283
2002 10 07.27055 00 25 01.34 +05 53 08.9 19.8   704 – Lincoln Laboratory ETS, New Mexico MPS 64283
2002 10 07.28617 00 25 00.47 +05 53 04.7 19.9   704 – Lincoln Laboratory ETS, New Mexico MPS 64283
2002 10 07.30179 00 24 59.48 +05 53 01.9 19.4   704 – Lincoln Laboratory ETS, New Mexico MPS 64283
2002 10 11.24453 00 21 20.54 +05 39 21.2 19.3   704 – Lincoln Laboratory ETS, New Mexico MPS 64283
2002 10 11.26031 00 21 19.68 +05 39 18.9 19.9   704 – Lincoln Laboratory ETS, New Mexico MPS 64283
2002 10 11.27610 00 21 18.82 +05 39 14.6 19.4   704 – Lincoln Laboratory ETS, New Mexico MPS 64283
2002 10 11.29188 00 21 17.87 +05 39 11.6 19.0   704 – Lincoln Laboratory ETS, New Mexico MPS 64283
2002 10 11.30771 00 21 17.01 +05 39 08.4 19.7   704 – Lincoln Laboratory ETS, New Mexico MPS 64283
2003 12 25.452720 10 37 09.082 +14 49 46.68 20.23 V 645 – Apache Point-Sloan Digital Sky Survey MPS 136422
2003 12 25.456192 10 37 09.144 +14 49 46.36 21.15   645 – Apache Point-Sloan Digital Sky Survey MPS 136422
2004 01 18.40553 10 35 51.65 +14 51 30.3 18.8   644 – Palomar Mountain/NEAT MPS 97135
2004 01 18.42860 10 35 50.98 +14 51 32.6 18.8   644 – Palomar Mountain/NEAT MPS 97135
2004 01 18.44900 10 35 50.41 +14 51 34.3 18.7   644 – Palomar Mountain/NEAT MPS 97135
2004 01 23.33149 10 33 22.61 +15 00 59.3 19.3   704 – Lincoln Laboratory ETS, New Mexico MPS 97987
2004 01 23.34422 10 33 22.11 +15 01 01.3 19.6   704 – Lincoln Laboratory ETS, New Mexico MPS 97987
2004 01 23.35707 10 33 21.61 +15 01 03.1 19.7   704 – Lincoln Laboratory ETS, New Mexico MPS 97987
2004 01 23.36987 10 33 21.19 +15 01 04.1 20.0   704 – Lincoln Laboratory ETS, New Mexico MPS 97987
2004 01 23.38254 10 33 20.63 +15 01 06.4 19.8   704 – Lincoln Laboratory ETS, New Mexico MPS 97987
2004 01 30.33368 10 28 39.67 +15 18 08.3 19.0   704 – Lincoln Laboratory ETS, New Mexico MPS 97987
2004 01 30.35745 10 28 38.57 +15 18 13.3 19.7   704 – Lincoln Laboratory ETS, New Mexico MPS 97987
2004 01 30.36944 10 28 37.97 +15 18 15.0 19.1   704 – Lincoln Laboratory ETS, New Mexico MPS 97987
2004 02 15.46742 10 13 57.38 +16 03 34.7 19.6   608 – Haleakala-AMOS MPS 98995
2004 02 15.47788 10 13 56.72 +16 03 36.6 19.8   608 – Haleakala-AMOS MPS 98995
2004 02 15.48832 10 13 56.06 +16 03 38.8 19.4   608 – Haleakala-AMOS MPS 98995
2004 02 16.27732 10 13 08.37 +16 05 43.0 19.0   704 – Lincoln Laboratory ETS, New Mexico MPS 100294
2004 02 16.28905 10 13 07.58 +16 05 44.8 19.3   704 – Lincoln Laboratory ETS, New Mexico MPS 100294
2004 02 16.29121 10 13 07.45 +16 05 44.8 19.1 V 691 – Steward Observatory, Kitt Peak-Spacewatch MPS 98995
2004 02 16.30073 10 13 06.83 +16 05 47.1 19.0   704 – Lincoln Laboratory ETS, New Mexico MPS 100294
2004 02 16.31243 10 13 06.11 +16 05 48.3 19.1   704 – Lincoln Laboratory ETS, New Mexico MPS 100294
2004 02 16.32031 10 13 05.61 +16 05 49.6 19.5 V 691 – Steward Observatory, Kitt Peak-Spacewatch MPS 98995
2004 02 16.32410 10 13 05.36 +16 05 50.4 19.1   704 – Lincoln Laboratory ETS, New Mexico MPS 100294
2004 02 16.34833 10 13 03.83 +16 05 53.9 19.2 V 691 – Steward Observatory, Kitt Peak-Spacewatch MPS 98995
2004 02 23.27585 10 06 01.37 +16 22 15.6 19.1   704 – Lincoln Laboratory ETS, New Mexico MPS 100294
2004 02 23.28977 10 06 00.48 +16 22 16.6 19.1   704 – Lincoln Laboratory ETS, New Mexico MPS 100294
2004 02 23.30128 10 05 59.74 +16 22 19.0 19.6   704 – Lincoln Laboratory ETS, New Mexico MPS 100294
2004 02 23.31524 10 05 58.88 +16 22 20.4 19.7   704 – Lincoln Laboratory ETS, New Mexico MPS 100294
2004 02 23.32949 10 05 57.98 +16 22 21.8 19.3   704 – Lincoln Laboratory ETS, New Mexico MPS 100294
2004 02 25.30526 10 03 59.55 +16 26 15.1 18.9   704 – Lincoln Laboratory ETS, New Mexico MPS 100294
2004 02 25.31739 10 03 58.81 +16 26 16.4 18.8   704 – Lincoln Laboratory ETS, New Mexico MPS 100294
2004 02 25.32950 10 03 58.13 +16 26 17.1 19.8   704 – Lincoln Laboratory ETS, New Mexico MPS 100294
2004 02 25.34147 10 03 57.27 +16 26 19.7 20.1   704 – Lincoln Laboratory ETS, New Mexico MPS 100294
2004 02 25.35472 10 03 56.42 +16 26 20.4 19.3   704 – Lincoln Laboratory ETS, New Mexico MPS 100294
2004 02 26.26970 10 03 02.41 +16 27 57.2 19.0   704 – Lincoln Laboratory ETS, New Mexico MPS 100294
2004 02 26.28126 10 03 01.70 +16 27 58.5 19.3   704 – Lincoln Laboratory ETS, New Mexico MPS 100294
2004 02 26.29247 10 03 01.00 +16 28 00.1 19.1   704 – Lincoln Laboratory ETS, New Mexico MPS 100294
2004 02 26.30364 10 03 00.32 +16 28 00.2 19.3   704 – Lincoln Laboratory ETS, New Mexico MPS 100294
2004 02 26.31480 10 02 59.66 +16 28 02.2 19.2   704 – Lincoln Laboratory ETS, New Mexico MPS 100295
2004 03 14.26505 09 48 44.43 +16 39 06.4 19.4 C 704 – Lincoln Laboratory ETS, New Mexico MPS 294003
